Hazen, ND

4:19 AM CDT on August 18, 2017 (GMT -0500)
Mercer County Regional

Weather History for KHZE - September, 2012

Change the Weather History Date:

Sunday, September 16, 2012

  Actual Average (KN60) Record (KN60)
Temperature  
Mean Temperature 50 °F -  
Max Temperature 57 °F 68 °F 91 °F (2002)
Min Temperature 44 °F 43 °F 42 °F (2016)
Degree Days  
Heating Degree Days 14    
Moisture  
Dew Point 37 °F    
Average Humidity 60    
Maximum Humidity 76    
Minimum Humidity 38    
Precipitation  
Precipitation 0.00 in - - ()
Sea Level Pressure  
Sea Level Pressure 30.09 in    
Wind  
Wind Speed 4 mph (NE)    
Max Wind Speed 10 mph    
Max Gust Speed 17 mph    
Visibility 10 miles    
Events      
Averages and records for this station are not official NWS values.
T = Trace of Precipitation, MM = Missing Value Source: NWS Daily Summary

Daily Weather History Graph

Daily Weather History Graph

Search for Another Location

Airport or City:

Trip Planner

Search our weather history database for the weather conditions in past years. The results will help you decide how hot, cold, wet, or windy it might be!

Date:

Astronomy

Sep. 16, 2012 Rise Set
Actual Time 7:25 AM CDT 7:55 PM CDT
Civil Twilight 6:55 AM CDT 8:25 PM CDT
Nautical Twilight 6:18 AM CDT 9:02 PM CDT
Astronomical Twilight 5:40 AM CDT 9:39 PM CDT
Moon 8:14 AM CDT (9/16) 7:52 PM CDT (9/16)
Length of Visible Light 13h 30m
Length of Day
12h 29m
New Moon, 0% of the Moon is Illuminated
Sep 16
New Moon
Sep 22
First Quarter
Sep 29
Full
Oct 8
Last Quarter
Oct 15
New

Hourly Weather History & Observations

Time (CDT) Temp. Windchill Dew Point Humidity Pressure Visibility Wind Dir Wind Speed Gust Speed Precip Events Conditions
12:15 AM 46.4 °F - 37.4 °F 71% 30.03 in 10.0 mi Calm Calm - N/A   Scattered Clouds
12:35 AM 48.2 °F - 37.4 °F 66% 30.04 in 10.0 mi SSE 3.5 mph - N/A   Partly Cloudy
12:55 AM 48.2 °F - 37.4 °F 66% 30.02 in 10.0 mi Calm Calm - N/A   Partly Cloudy
1:15 AM 46.4 °F - 37.4 °F 71% 30.03 in 10.0 mi Calm Calm - N/A   Partly Cloudy
1:35 AM 44.6 °F 43.1 °F 37.4 °F 76% 30.02 in 10.0 mi ENE 3.5 mph - N/A   Partly Cloudy
1:55 AM 50.0 °F - 37.4 °F 62% 30.03 in 10.0 mi East 3.5 mph - N/A   Clear
2:15 AM 50.0 °F - 37.4 °F 62% 30.04 in 10.0 mi Calm Calm - N/A   Mostly Cloudy
2:35 AM 48.2 °F - 37.4 °F 66% 30.04 in 10.0 mi NNE 3.5 mph - N/A   Mostly Cloudy
2:55 AM 50.0 °F - 35.6 °F 58% 30.06 in 10.0 mi NNE 5.8 mph - N/A   Mostly Cloudy
3:15 AM 57.2 °F - 33.8 °F 41% 30.07 in 10.0 mi NE 4.6 mph - N/A   Overcast
3:35 AM 57.2 °F - 32.0 °F 38% 30.07 in 10.0 mi ENE 4.6 mph - N/A   Overcast
3:55 AM 57.2 °F - 33.8 °F 41% 30.03 in 10.0 mi ENE 6.9 mph - N/A   Mostly Cloudy
4:15 AM 55.4 °F - 33.8 °F 44% 30.04 in 10.0 mi East 3.5 mph - N/A   Clear
4:35 AM 55.4 °F - 32.0 °F 41% 30.05 in 10.0 mi ENE 5.8 mph - N/A   Partly Cloudy
4:55 AM 51.8 °F - 33.8 °F 50% 30.06 in 10.0 mi Calm Calm - N/A   Partly Cloudy
5:15 AM 48.2 °F - 33.8 °F 58% 30.07 in 10.0 mi WSW 4.6 mph - N/A   Mostly Cloudy
5:35 AM 48.2 °F - 35.6 °F 62% 30.08 in 10.0 mi NW 4.6 mph - N/A   Overcast
5:55 AM 50.0 °F - 35.6 °F 58% 30.08 in 10.0 mi NNE 6.9 mph - N/A   Scattered Clouds
6:15 AM 51.8 °F - 35.6 °F 54% 30.08 in 10.0 mi NNE 9.2 mph - N/A   Clear
6:35 AM 51.8 °F - 35.6 °F 54% 30.07 in 10.0 mi ENE 6.9 mph - N/A   Clear
7:15 AM 50.0 °F - 37.4 °F 62% 30.11 in 10.0 mi Calm Calm - N/A   Partly Cloudy
7:55 AM 50.0 °F - 35.6 °F 58% 30.11 in 10.0 mi NE 5.8 mph - N/A   Scattered Clouds
8:15 AM 50.0 °F - 37.4 °F 62% 30.13 in 10.0 mi NE 5.8 mph - N/A   Scattered Clouds
8:35 AM 50.0 °F - 37.4 °F 62% 30.12 in 10.0 mi NE 8.1 mph - N/A   Partly Cloudy
8:55 AM 50.0 °F - 37.4 °F 62% 30.13 in 10.0 mi ENE 3.5 mph - N/A   Scattered Clouds
9:15 AM 50.0 °F - 39.2 °F 66% 30.13 in 10.0 mi NE 4.6 mph - N/A   Mostly Cloudy
9:35 AM 50.0 °F - 41.0 °F 71% 30.14 in 10.0 mi NE 4.6 mph - N/A   Scattered Clouds
9:55 AM 50.0 °F - 41.0 °F 71% 30.14 in 10.0 mi NE 4.6 mph - N/A   Mostly Cloudy
10:15 AM 50.0 °F - 41.0 °F 71% 30.15 in 10.0 mi ENE 4.6 mph - N/A   Mostly Cloudy
10:35 AM 50.0 °F - 42.8 °F 76% 30.12 in 10.0 mi ENE 6.9 mph - N/A   Scattered Clouds
10:55 AM 51.8 °F - 42.8 °F 71% 30.13 in 10.0 mi ENE 8.1 mph - N/A   Partly Cloudy
11:15 AM 53.6 °F - 41.0 °F 62% 30.15 in 10.0 mi ENE 10.4 mph 17.3 mph N/A   Partly Cloudy
11:35 AM 55.4 °F - 41.0 °F 58% 30.17 in 10.0 mi NNE 6.9 mph - N/A   Scattered Clouds
11:55 AM 55.4 °F - 39.2 °F 54% 30.16 in 10.0 mi NE 9.2 mph - N/A   Scattered Clouds